Temp
9 9 9 9 9 9 9 10 9 9 9 10 10 10 10 10 10 11 11 11 11 11 11 12 12 12 12 11 11 11 11 11 11 11 11 12 12 12 12 12 11 11 11 11 11 11 11 11 11 11 11 11 11 11 11 11 11 11 11 11 11 11 11 11 11 11 11 11 11
9 9 9 9 9 9 9 9 9 9 9 9 10 10 10 10 11 11 11 11 11 11 11 11 11 11 11 11 11 11 11 11 11 11 11 12 12 12 12 12 11 11 11 11 11 11 11 11 11 11 11 11 11 11 11 11 11 11 11 11 11 11 11 10 10 10 10 10 10
9 9 9 9 9 9 9 9 9 9 9 9 9 9 10 10 11 11 11 11 11 11 11 11 11 11 11 11 11 11 11 11 11 11 11 11 12 12 12 12 12 12 11 11 11 11 11 11 11 11 11 11 11 11 11 10 11 11 11 11 10 10 10 10 10 10 10 10 10
8 9 9 9 9 9 9 9 9 9 9 9 10 10 11 11 11 11 11 11 11 11 10 10 10 10 11 11 11 11 11 11 11 11 11 11 12 12 12 12 12 12 11 11 11 11 11 11 11 11 11 11 11 11 11 10 10 10 10 10 10 10 10 10 10 10 10 10 10
8 8 9 9 9 9 9 9 8 8 9 10 10 10 11 11 11 11 11 11 11 10 10 10 10 10 10 10 10 10 11 11 11 11 11 11 11 12 12 12 11 11 11 11 10 10 11 11 11 11 11 11 11 11 11 10 10 10 10 11 11 11 11 10 10 10 10 10 10
8 8 8 8 8 9 9 8 8 8 9 10 10 10 10 10 10 10 10 10 10 10 10 10 10 9 9 9 9 10 10 10 11 11 11 11 11 11 11 11 11 11 11 11 10 10 10 10 10 10 11 11 11 11 11 10 10 10 10 11 11 11 11 11 10 10 10 10 10
8 8 8 8 8 8 9 9 9 9 10 10 10 10 10 10 10 10 10 10 10 10 10 9 9 9 8 9 9 9 10 10 10 10 11 11 11 11 11 11 11 11 11 10 10 10 10 10 10 10 10 11 11 11 11 11 10 10 10 10 11 11 10 10 10 10 10 10 10
8 8 8 8 9 9 9 9 9 10 10 10 10 10 10 10 10 10 10 10 9 9 9 9 8 8 8 9 9 9 10 10 10 10 10 10 11 11 11 11 11 11 10 10 10 11 11 10 10 10 10 10 11 11 10 10 10 10 10 10 10 10 10 10 10 10 10 10 10
8 8 8 9 9 9 9 9 9 9 9 9 9 9 9 10 10 10 9 9 9 9 8 8 8 8 8 9 9 9 10 10 10 10 10 10 10 10 10 10 11 10 10 10 10 10 11 10 10 10 11 11 10 10 10 10 10 10 10 10 10 10 10 9 9 9 9 9 10
8 8 8 9 9 9 9 9 9 9 9 9 9 9 9 9 9 9 9 9 9 8 8 8 7 7 8 8 9 9 9 9 10 10 10 10 10 10 10 10 10 10 10 10 10 10 10 10 10 10 10 10 10 10 10 10 10 10 10 9 9 9 9 9 9 9 9 9 9
7 8 8 9 9 9 9 9 8 8 9 9 9 9 9 9 9 9 9 8 8 8 8 8 7 7 8 8 8 9 9 9 9 9 9 10 10 10 10 9 9 10 10 10 10 10 10 10 10 10 10 10 10 10 10 10 9 9 9 9 9 9 9 9 9 8 8 8 9
7 7 8 8 8 8 8 8 8 8 8 9 9 8 8 8 8 8 8 8 8 8 8 8 8 8 8 8 8 8 8 8 9 9 9 9 9 9 9 9 9 9 9 10 10 10 10 10 10 10 10 9 9 9 9 9 9 9 9 9 9 9 9 8 8 8 8 8 8
7 7 7 7 8 8 8 8 8 8 8 8 8 8 8 8 8 8 8 8 7 7 7 7 7 7 8 8 8 8 8 8 8 9 9 9 9 9 9 9 9 9 9 9 9 9 9 9 9 9 9 9 9 9 9 9 8 8 8 8 8 8 8 8 8 8 8 8 8
7 7 7 7 7 7 7 8 8 8 8 8 8 7 7 7 7 7 7 7 7 7 7 7 7 7 7 7 8 8 8 8 8 8 8 8 9 9 9 9 9 9 9 9 9 9 9 9 9 8 8 8 8 8 8 8 8 8 8 8 8 8 8 7 7 7 7 7 7
7 7 7 7 7 7 7 7 7 8 8 7 7 7 7 7 7 7 7 7 7 7 7 7 6 6 7 7 7 8 8 8 8 8 8 8 8 8 8 8 8 8 9 9 9 9 9 9 8 8 8 8 8 8 8 8 8 8 8 8 8 8 8 7 7 6 6 6 6
7 7 7 7 7 7 7 7 7 7 7 7 7 7 7 7 7 7 6 6 6 7 6 6 6 6 6 7 7 7 7 8 8 8 8 8 8 8 8 8 8 8 8 8 8 8 8 8 8 8 8 8 8 8 8 8 8 8 8 8 8 8 8 7 6 6 5 5 6
6 6 6 6 6 6 6 6 7 7 7 7 7 7 7 7 7 6 6 6 6 6 6 6 6 6 6 7 7 7 7 7 7 7 8 8 7 7 7 7 8 8 8 8 8 8 8 8 8 8 8 8 8 8 8 7 8 8 8 8 8 8 7 7 6 5 5 5 6
5 5 5 6 6 6 6 6 6 6 6 6 6 6 6 6 6 6 6 6 6 6 6 6 6 6 6 6 7 7 7 7 7 7 7 7 7 7 7 7 7 7 7 7 7 7 7 7 7 7 7 7 7 7 7 7 7 7 7 7 7 7 7 6 6 5 5 5 5
4 4 5 5 5 5 5 5 5 5 5 6 6 6 6 6 5 5 5 6 6 6 6 6 6 6 6 6 7 7 7 7 7 7 7 7 7 7 7 7 7 7 7 7 7 7 7 7 7 7 7 6 6 6 7 7 7 7 7 7 7 7 6 6 6 5 5 5 5
4 4 4 4 4 5 5 5 5 5 5 5 5 5 5 5 5 5 5 5 5 5 5 5 5 5 5 6 6 6 6 6 6 6 6 6 6 6 6 6 6 6 6 6 6 6 6 6 6 6 6 6 6 6 6 6 6 6 6 6 6 6 6 5 5 5 5 5 5
4 4 4 4 4 4 4 4 4 4 4 4 4 4 4 4 4 4 4 5 5 5 5 5 5 5 5 5 6 6 6 5 6 6 6 6 6 6 6 6 6 6 6 6 6 6 6 6 6 6 6 6 6 6 6 5 5 5 5 6 5 5 5 5 5 5 5 5 5
3 3 3 3 4 4 4 4 4 4 4 4 4 4 4 4 4 4 4 4 4 5 4 4 4 4 4 5 5 5 5 5 5 5 5 5 5 5 5 5 5 6 6 5 5 5 5 5 5 5 5 5 5 5 5 5 5 5 5 5 5 5 5 5 5 5 5 5 5
2 2 3 3 3 3 3 3 3 3 3 3 3 3 3 3 3 3 3 4 4 4 4 3 3 3 4 4 4 4 4 4 4 4 4 4 4 4 4 4 5 5 5 5 5 5 5 5 5 5 5 5 5 5 5 4 4 5 5 5 5 5 5 5 4 4 4 4 4
1 2 2 2 2 2 2 3 3 3 3 2 2 2 2 2 2 3 3 3 3 3 3 3 2 2 3 3 3 3 3 3 3 3 3 3 3 3 4 4 4 4 4 4 4 4 4 4 4 4 4 4 4 4 4 4 4 5 5 5 5 5 4 4 4 4 4 4 4
1 1 1 1 2 2 2 2 2 2 2 2 2 2 2 2 2 2 2 2 2 2 2 2 1 1 2 2 2 2 2 2 2 2 2 2 2 3 3 3 3 3 3 4 4 4 4 4 4 4 4 4 4 4 4 4 4 4 5 4 4 4 4 4 4 4 3 3 3
0 1 1 1 1 1 1 1 1 1 1 1 1 1 1 1 1 1 1 1 1 1 1 1 1 1 1 1 1 1 1 1 1 1 1 1 2 2 2 2 2 2 3 3 3 3 3 3 4 4 4 4 4 4 4 4 4 4 4 4 3 3 3 3 3 3 2 2 2
-0 -0 0 0 0 0 0 0 0 0 0 0 0 0 0 0 0 0 0 1 0 0 -0 -0 -0 -0 -0 -0 -0 -0 -0 0 0 0 1 1 1 1 2 2 2 2 2 2 3 3 3 3 3 3 3 3 3 3 3 3 3 3 3 3 3 2 2 2 2 1 1 1 0
-1 -1 -1 -1 -1 -1 -1 -1 -1 -1 -1 -1 -1 -1 -1 -1 -1 -0 -0 -0 -1 -1 -1 -1 -1 -1 -1 -1 -1 -1 -1 -0 -0 0 1 1 1 2 2 2 2 2 2 2 2 2 2 2 2 2 2 2 2 2 2 2 2 2 2 2 1 1 1 1 0 0 -0 -1 -1
-2 -2 -2 -2 -2 -2 -2 -1 -1 -1 -1 -1 -1 -1 -1 -1 -1 -1 -1 -1 -1 -1 -2 -2 -1 -1 -1 -1 -1 -1 -1 -0 0 1 1 1 2 2 2 2 2 2 2 2 2 2 1 1 1 2 2 2 2 2 2 2 1 1 1 1 0 0 -0 -0 -1 -1 -1 -2 -2
-2 -2 -2 -2 -2 -2 -2 -2 -2 -2 -2 -2 -2 -2 -2 -2 -2 -2 -2 -2 -2 -2 -2 -2 -2 -1 -1 -1 -1 -1 -0 -0 0 1 1 1 1 1 2 2 2 2 2 1 1 1 1 1 1 1 1 1 1 1 1 1 0 0 -0 -0 -0 -1 -1 -1 -1 -2 -2 -2 -3
-3 -2 -2 -2 -2 -2 -2 -2 -2 -2 -2 -2 -2 -2 -2 -2 -2 -2 -2 -2 -2 -2 -2 -2 -2 -2 -2 -1 -1 -1 -1 -0 -0 -0 0 0 0 0 1 1 1 1 0 0 -0 -0 -0 0 0 1 1 0 0 0 -0 -0 -0 -1 -1 -1 -1 -1 -1 -2 -2 -2 -3 -3 -3
-3 -3 -2 -2 -2 -2 -2 -2 -2 -2 -2 -2 -2 -2 -3 -3 -3 -3 -3 -3 -3 -3 -3 -3 -3 -3 -2 -2 -2 -2 -2 -2 -2 -2 -2 -2 -1 -1 -1 -1 -1 -1 -1 -1 -1 -1 -0 -0 -0 -0 -0 -0 -0 -1 -1 -1 -1 -1 -1 -1 -1 -2 -2 -2 -2 -3 -3 -3 -3
-3 -3 -3 -3 -3 -3 -3 -3 -3 -3 -3 -3 -3 -3 -3 -4 -4 -4 -4 -4 -4 -4 -4 -4 -3 -3 -3 -3 -3 -3 -3 -3 -3 -3 -3 -2 -2 -2 -1 -1 -1 -1 -1 -1 -1 -1 -1 -1 -1 -1 -1 -1 -1 -1 -1 -1 -1 -1 -1 -2 -2 -2 -2 -3 -3 -3 -3 -3 -3
-3 -3 -3 -3 -3 -3 -3 -3 -3 -4 -4 -4 -4 -4 -4 -4 -4 -4 -4 -4 -4 -4 -4 -4 -3 -3 -3 -3 -3 -3 -3 -4 -3 -3 -3 -2 -2 -2 -1 -1 -2 -2 -1 -1 -1 -1 -1 -1 -1 -1 -1 -1 -1 -1 -1 -1 -1 -2 -2 -2 -2 -3 -3 -3 -3 -3 -3 -3 -4
-3 -3 -3 -3 -3 -3 -3 -3 -4 -4 -5 -5 -5 -5 -4 -4 -5 -5 -5 -4 -4 -4 -4 -4 -3 -3 -3 -3 -3 -3 -3 -4 -4 -3 -3 -2 -2 -2 -2 -2 -2 -2 -2 -1 -1 -2 -2 -2 -2 -2 -1 -1 -1 -1 -2 -2 -2 -2 -2 -3 -3 -3 -3 -3 -3 -3 -3 -4 -4
-3 -3 -3 -3 -3 -3 -4 -4 -4 -5 -5 -5 -4 -4 -4 -4 -5 -5 -5 -4 -4 -4 -4 -4 -4 -4 -4 -3 -3 -4 -4 -4 -4 -3 -3 -3 -3 -3 -3 -3 -2 -2 -2 -2 -2 -2 -2 -2 -2 -2 -2 -2 -2 -2 -2 -3 -3 -3 -3 -3 -3 -3 -3 -3 -3 -4 -4 -4 -4
-3 -3 -3 -3 -3 -3 -4 -4 -5 -5 -4 -4 -4 -3 -4 -4 -4 -4 -4 -4 -4 -4 -4 -4 -4 -4 -4 -4 -4 -4 -4 -4 -4 -4 -4 -4 -3 -3 -3 -3 -3 -2 -2 -2 -3 -3 -3 -3 -3 -3 -3 -3 -3 -3 -4 -4 -4 -4 -4 -4 -4 -4 -4 -4 -4 -4 -4 -4 -4
-3 -4 -4 -4 -4 -4 -4 -5 -5 -4 -4 -3 -3 -3 -3 -3 -4 -4 -4 -4 -4 -3 -3 -3 -3 -4 -4 -4 -4 -4 -4 -4 -4 -4 -4 -4 -4 -4 -4 -4 -4 -4 -4 -5 -5 -4 -4 -4 -4 -4 -4 -5 -5 -5 -5 -5 -5 -4 -4 -4 -4 -4 -4 -4 -4 -4 -4 -4 -4
-4 -4 -4 -4 -4 -5 -5 -5 -4 -4 -3 -3 -3 -3 -3 -3 -3 -3 -3 -3 -3 -3 -3 -3 -4 -4 -4 -4 -4 -4 -4 -4 -4 -4 -5 -5 -6 -6 -6 -6 -7 -7 -7 -7 -7 -6 -6 -5 -5 -5 -5 -5 -5 -5 -5 -5 -5 -5 -5 -5 -5 -5 -5 -5 -5 -4 -4 -4 -4
-4 -4 -4 -4 -4 -4 -4 -4 -3 -3 -3 -3 -3 -3 -3 -3 -3 -3 -3 -3 -3 -3 -3 -4 -4 -4 -4 -4 -4 -4 -5 -5 -5 -5 -5 -6 -7 -7 -7 -7 -7 -7 -8 -8 -8 -7 -7 -6 -5 -5 -5 -5 -5 -5 -5 -5 -5 -6 -6 -5 -5 -5 -5 -5 -5 -5 -5 -5 -5
-4 -4 -4 -4 -4 -4 -3 -3 -3 -3 -3 -3 -3 -3 -3 -3 -3 -3 -3 -3 -3 -3 -4 -4 -4 -4 -5 -5 -5 -5 -5 -6 -6 -6 -6 -6 -7 -7 -7 -7 -7 -7 -7 -7 -7 -7 -7 -7 -6 -5 -5 -5 -5 -5 -5 -5 -5 -5 -6 -5 -5 -5 -5 -5 -5 -5 -5 -5 -5
Height
1464 1465 1465 1466 1467 1468 1469 1469 1469 1468 1468 1468 1469 1469 1469 1469 1469 1469 1470 1470 1470 1471 1471 1472 1473 1474 1475 1475 1476 1477 1477 1478 1478 1479 1479 1480 1480 1480 1481 1481 1482 1483 1483 1483 1484 1484 1485 1485 1485 1486 1486 1486 1487 1487 1488 1488 1489 1489 1489 1490 1490 1491 1492 1492 1493 1493 1494 1495 1495
1462 1464 1464 1465 1466 1466 1467 1467 1467 1467 1467 1467 1467 1467 1467 1467 1467 1468 1469 1470 1470 1470 1471 1472 1472 1473 1473 1474 1475 1475 1476 1476 1477 1478 1478 1479 1479 1480 1480 1480 1481 1481 1482 1482 1483 1484 1484 1484 1485 1485 1485 1485 1486 1486 1487 1487 1488 1488 1488 1489 1489 1490 1491 1491 1492 1492 1493 1494 1495
1461 1462 1463 1464 1464 1465 1465 1465 1465 1465 1465 1465 1466 1466 1465 1466 1466 1467 1468 1469 1469 1470 1470 1471 1471 1471 1472 1472 1473 1474 1475 1475 1476 1476 1477 1478 1478 1479 1479 1479 1480 1480 1481 1481 1482 1483 1483 1483 1483 1484 1484 1485 1485 1485 1486 1486 1487 1487 1488 1488 1489 1490 1490 1490 1491 1492 1493 1494 1494
1460 1461 1462 1462 1463 1463 1463 1463 1464 1464 1464 1463 1464 1464 1464 1465 1466 1467 1467 1468 1468 1468 1469 1469 1470 1470 1470 1471 1472 1472 1473 1474 1475 1475 1476 1476 1477 1477 1478 1478 1479 1479 1480 1481 1481 1482 1482 1482 1483 1483 1484 1484 1485 1485 1485 1486 1486 1487 1487 1488 1488 1489 1490 1490 1491 1492 1492 1493 1493
1459 1459 1460 1460 1461 1461 1462 1462 1462 1462 1462 1462 1463 1463 1464 1464 1465 1466 1466 1467 1467 1467 1468 1468 1469 1469 1469 1470 1470 1471 1472 1472 1473 1474 1475 1475 1475 1476 1477 1477 1478 1478 1479 1480 1481 1481 1482 1482 1482 1482 1483 1483 1484 1484 1485 1485 1486 1486 1487 1487 1488 1488 1489 1490 1490 1491 1491 1492 1492
1456 1457 1457 1457 1458 1459 1459 1460 1460 1460 1460 1461 1461 1462 1463 1464 1465 1465 1465 1465 1466 1466 1467 1467 1467 1468 1469 1469 1470 1470 1470 1471 1472 1472 1473 1474 1474 1475 1475 1476 1477 1477 1478 1479 1480 1480 1481 1482 1482 1482 1482 1482 1483 1483 1484 1485 1485 1486 1486 1487 1487 1488 1488 1489 1490 1490 1490 1491 1491
1454 1455 1455 1455 1455 1456 1457 1457 1458 1458 1459 1460 1460 1461 1462 1463 1464 1464 1464 1465 1465 1465 1466 1466 1467 1467 1468 1469 1469 1469 1470 1470 1470 1471 1472 1472 1473 1473 1474 1475 1475 1476 1477 1478 1479 1479 1480 1480 1481 1481 1481 1481 1482 1482 1483 1484 1484 1485 1486 1487 1487 1487 1488 1488 1489 1489 1490 1490 1491
1452 1452 1453 1453 1454 1455 1456 1457 1457 1458 1458 1459 1460 1461 1462 1462 1463 1463 1464 1464 1464 1465 1465 1465 1466 1467 1468 1468 1468 1469 1469 1469 1470 1470 1470 1471 1472 1472 1473 1474 1474 1475 1476 1477 1477 1478 1479 1479 1480 1480 1480 1481 1481 1481 1482 1483 1483 1484 1485 1486 1486 1486 1486 1487 1488 1488 1489 1490 1490
1450 1451 1452 1453 1454 1455 1455 1456 1456 1457 1458 1459 1460 1460 1461 1461 1462 1462 1463 1463 1464 1464 1464 1465 1465 1466 1467 1467 1468 1468 1468 1468 1468 1469 1469 1470 1470 1471 1472 1472 1473 1474 1475 1475 1476 1476 1477 1478 1478 1479 1479 1480 1480 1481 1481 1482 1482 1483 1484 1485 1485 1485 1485 1486 1487 1488 1488 1489 1489
1450 1450 1451 1452 1453 1454 1455 1455 1456 1457 1458 1459 1459 1460 1460 1461 1461 1462 1462 1462 1463 1463 1464 1464 1465 1465 1466 1466 1467 1467 1467 1467 1467 1468 1468 1469 1470 1470 1471 1471 1472 1473 1473 1474 1475 1475 1476 1477 1477 1478 1478 1479 1479 1480 1480 1481 1481 1482 1483 1483 1483 1483 1484 1485 1486 1487 1487 1487 1488
1449 1449 1450 1451 1452 1453 1454 1455 1456 1457 1457 1458 1459 1459 1460 1460 1460 1461 1461 1462 1462 1462 1463 1463 1464 1465 1465 1465 1466 1466 1466 1466 1466 1467 1467 1468 1469 1469 1470 1470 1471 1471 1472 1473 1473 1474 1475 1476 1476 1477 1477 1478 1478 1479 1479 1480 1480 1481 1481 1481 1482 1482 1483 1484 1485 1485 1486 1486 1487
1448 1449 1450 1450 1451 1452 1453 1455 1455 1456 1457 1457 1458 1458 1459 1459 1460 1460 1461 1461 1461 1462 1462 1463 1463 1464 1464 1465 1465 1465 1465 1465 1465 1466 1467 1467 1468 1468 1469 1470 1470 1471 1471 1472 1472 1473 1474 1475 1475 1476 1476 1476 1477 1477 1478 1478 1479 1480 1480 1480 1480 1481 1482 1483 1484 1484 1485 1485 1486
1448 1449 1450 1450 1451 1452 1453 1454 1455 1455 1456 1456 1457 1457 1458 1459 1459 1460 1460 1460 1461 1461 1462 1462 1462 1463 1463 1464 1464 1464 1464 1465 1465 1465 1466 1466 1467 1467 1468 1469 1469 1470 1470 1471 1471 1472 1473 1473 1474 1475 1475 1475 1476 1476 1477 1477 1478 1478 1479 1479 1479 1480 1481 1481 1482 1483 1484 1484 1485
1448 1448 1449 1450 1451 1452 1453 1454 1454 1455 1455 1456 1456 1457 1457 1458 1459 1459 1459 1460 1460 1461 1461 1461 1461 1462 1463 1463 1463 1463 1464 1464 1464 1465 1465 1465 1466 1466 1467 1468 1468 1469 1470 1470 1470 1471 1472 1473 1474 1474 1474 1475 1475 1475 1476 1476 1477 1477 1478 1478 1478 1479 1480 1480 1481 1482 1483 1483 1484
1447 1448 1449 1450 1450 1451 1452 1453 1453 1454 1455 1455 1455 1456 1457 1457 1458 1458 1459 1459 1460 1460 1460 1460 1461 1461 1462 1463 1463 1463 1463 1463 1464 1464 1464 1465 1465 1465 1466 1467 1467 1468 1469 1470 1470 1470 1471 1472 1473 1473 1473 1474 1474 1474 1475 1475 1476 1476 1477 1477 1477 1478 1479 1479 1480 1481 1482 1483 1483
1447 1448 1448 1449 1450 1450 1451 1452 1453 1453 1454 1454 1455 1455 1456 1456 1457 1457 1458 1458 1459 1459 1459 1460 1460 1461 1461 1462 1462 1462 1462 1462 1463 1463 1464 1464 1465 1465 1466 1466 1467 1468 1468 1469 1469 1470 1471 1472 1472 1473 1473 1473 1474 1474 1474 1474 1475 1476 1476 1476 1477 1477 1478 1478 1479 1480 1481 1482 1483
1447 1447 1448 1448 1449 1450 1450 1451 1452 1453 1453 1454 1454 1455 1455 1456 1456 1457 1457 1457 1458 1458 1458 1459 1460 1460 1460 1461 1461 1461 1461 1461 1462 1462 1463 1464 1464 1465 1465 1466 1467 1467 1468 1469 1469 1470 1470 1471 1472 1472 1473 1473 1474 1474 1474 1474 1475 1476 1476 1476 1476 1477 1477 1477 1478 1479 1481 1482 1483
1446 1447 1447 1448 1449 1449 1450 1450 1451 1452 1452 1453 1454 1454 1455 1455 1455 1456 1456 1456 1457 1457 1458 1458 1459 1459 1459 1460 1460 1460 1460 1460 1461 1462 1462 1463 1464 1464 1465 1465 1466 1467 1467 1468 1469 1470 1470 1471 1471 1472 1473 1473 1474 1474 1474 1474 1475 1475 1476 1476 1476 1476 1477 1477 1478 1479 1480 1481 1482
1446 1446 1447 1447 1448 1449 1449 1450 1450 1451 1452 1452 1453 1453 1454 1454 1455 1455 1455 1456 1456 1456 1457 1457 1458 1458 1459 1459 1460 1460 1460 1460 1460 1461 1462 1463 1463 1464 1465 1465 1466 1466 1467 1468 1469 1469 1470 1470 1471 1471 1472 1472 1473 1473 1474 1474 1475 1475 1475 1475 1476 1476 1476 1477 1478 1479 1480 1481 1481
1445 1446 1446 1447 1448 1448 1449 1450 1450 1451 1451 1452 1452 1453 1453 1454 1454 1455 1455 1455 1455 1455 1456 1457 1457 1457 1458 1459 1459 1460 1460 1460 1460 1461 1461 1462 1463 1464 1464 1465 1465 1466 1467 1467 1468 1469 1470 1470 1470 1471 1471 1472 1472 1472 1473 1473 1474 1474 1474 1475 1475 1475 1476 1477 1478 1479 1480 1480 1480
1445 1445 1446 1446 1447 1448 1448 1449 1450 1450 1451 1451 1452 1452 1453 1453 1453 1454 1454 1455 1455 1455 1455 1456 1456 1457 1457 1458 1458 1459 1459 1460 1460 1460 1461 1462 1462 1463 1464 1464 1465 1465 1466 1467 1468 1468 1469 1470 1470 1471 1471 1471 1471 1472 1472 1473 1473 1473 1473 1474 1474 1475 1476 1477 1477 1478 1479 1479 1478
1444 1445 1445 1446 1446 1447 1448 1448 1449 1450 1450 1451 1451 1452 1452 1452 1453 1453 1454 1454 1454 1455 1455 1455 1455 1456 1457 1457 1458 1458 1459 1459 1460 1460 1460 1461 1462 1463 1463 1464 1465 1465 1466 1467 1467 1468 1469 1469 1470 1470 1471 1471 1471 1472 1472 1472 1473 1473 1473 1473 1474 1475 1475 1476 1477 1477 1477 1477 1477
1444 1445 1445 1445 1446 1446 1447 1448 1448 1449 1450 1450 1450 1451 1451 1452 1452 1453 1453 1453 1454 1454 1454 1455 1455 1456 1456 1457 1457 1458 1458 1459 1459 1460 1460 1461 1462 1462 1463 1464 1465 1465 1466 1466 1467 1468 1469 1469 1470 1470 1470 1471 1471 1472 1472 1472 1472 1472 1472 1473 1473 1474 1475 1475 1475 1476 1476 1476 1475
1444 1444 1445 1445 1445 1446 1446 1447 1448 1448 1449 1450 1450 1450 1451 1451 1452 1452 1453 1453 1453 1454 1454 1455 1455 1456 1456 1457 1457 1458 1458 1459 1459 1460 1460 1461 1462 1463 1463 1464 1465 1465 1466 1466 1467 1468 1468 1469 1469 1470 1470 1470 1471 1471 1471 1472 1472 1472 1472 1472 1473 1473 1474 1474 1475 1475 1475 1475 1475
1444 1444 1445 1445 1445 1446 1446 1447 1447 1448 1448 1449 1450 1450 1450 1451 1452 1452 1453 1453 1453 1454 1454 1455 1455 1456 1456 1457 1457 1458 1458 1459 1459 1460 1460 1461 1462 1463 1463 1464 1465 1465 1466 1466 1467 1468 1468 1469 1469 1470 1470 1470 1470 1470 1471 1471 1471 1471 1471 1471 1472 1472 1473 1473 1473 1473 1473 1473 1473
1444 1444 1445 1445 1445 1445 1446 1446 1447 1447 1448 1449 1449 1450 1450 1451 1452 1452 1453 1453 1453 1454 1454 1455 1455 1456 1456 1457 1457 1458 1458 1459 1460 1460 1461 1461 1462 1463 1463 1464 1465 1465 1466 1467 1467 1468 1468 1469 1469 1469 1469 1470 1470 1470 1470 1470 1470 1470 1470 1471 1471 1471 1472 1472 1472 1472 1472 1472 1472
1444 1444 1445 1445 1445 1446 1446 1446 1447 1447 1448 1449 1449 1450 1450 1451 1452 1452 1452 1453 1453 1453 1454 1455 1455 1456 1457 1457 1458 1458 1459 1459 1460 1460 1461 1462 1463 1463 1464 1465 1465 1465 1466 1467 1468 1468 1468 1468 1468 1469 1469 1469 1469 1469 1469 1469 1470 1470 1470 1470 1470 1471 1471 1471 1470 1471 1471 1471 1471
1445 1445 1445 1445 1446 1446 1447 1447 1448 1448 1449 1449 1450 1450 1451 1451 1452 1452 1453 1453 1453 1454 1455 1455 1456 1457 1457 1458 1459 1459 1460 1460 1460 1461 1462 1462 1463 1464 1464 1465 1465 1466 1466 1467 1468 1468 1468 1468 1468 1468 1468 1468 1468 1469 1469 1469 1469 1469 1469 1469 1469 1469 1469 1469 1469 1469 1470 1470 1470
1446 1446 1446 1447 1447 1447 1448 1448 1449 1449 1450 1450 1451 1451 1452 1452 1453 1453 1454 1454 1454 1455 1455 1456 1457 1458 1458 1459 1460 1460 1460 1461 1461 1461 1462 1462 1463 1464 1464 1465 1465 1466 1466 1467 1467 1468 1468 1468 1468 1468 1467 1467 1467 1468 1468 1468 1468 1468 1468 1468 1468 1468 1468 1468 1468 1469 1469 1469 1469
1448 1448 1448 1448 1448 1449 1449 1449 1450 1450 1451 1451 1452 1452 1453 1453 1454 1454 1455 1455 1455 1455 1456 1457 1458 1458 1459 1460 1460 1460 1461 1461 1461 1461 1462 1462 1463 1464 1464 1465 1465 1466 1466 1467 1467 1467 1467 1467 1467 1466 1466 1466 1466 1466 1466 1467 1467 1467 1467 1467 1467 1467 1467 1467 1468 1468 1468 1469 1469
1449 1449 1449 1450 1450 1450 1450 1450 1451 1451 1452 1452 1453 1453 1453 1454 1454 1455 1455 1455 1455 1456 1456 1457 1458 1459 1459 1460 1460 1461 1461 1461 1462 1462 1462 1462 1463 1463 1464 1464 1465 1465 1465 1465 1466 1466 1466 1465 1465 1465 1465 1465 1465 1465 1466 1466 1466 1466 1466 1466 1466 1467 1467 1467 1467 1468 1468 1468 1469
1450 1450 1450 1450 1450 1450 1451 1451 1452 1452 1453 1453 1454 1454 1454 1454 1455 1455 1455 1455 1456 1456 1457 1457 1458 1459 1460 1460 1460 1461 1461 1462 1462 1462 1462 1462 1462 1463 1463 1463 1464 1464 1464 1465 1465 1465 1465 1465 1465 1465 1465 1465 1465 1465 1465 1465 1466 1466 1466 1466 1466 1466 1467 1467 1467 1467 1468 1468 1468
1451 1451 1451 1451 1451 1451 1451 1452 1452 1453 1453 1454 1454 1454 1454 1455 1455 1455 1455 1456 1456 1457 1457 1457 1458 1459 1460 1460 1460 1461 1462 1462 1462 1462 1462 1462 1463 1463 1463 1464 1464 1464 1464 1465 1465 1465 1465 1465 1465 1465 1465 1465 1465 1465 1465 1465 1465 1465 1466 1466 1466 1466 1466 1467 1467 1467 1467 1468 1468
1452 1452 1452 1452 1452 1452 1452 1452 1453 1453 1454 1454 1454 1454 1455 1456 1456 1456 1456 1456 1457 1457 1458 1458 1459 1460 1460 1460 1461 1462 1462 1463 1463 1463 1462 1463 1463 1464 1464 1464 1464 1465 1465 1465 1465 1465 1465 1465 1465 1465 1465 1465 1465 1465 1465 1465 1465 1465 1466 1466 1466 1466 1466 1467 1467 1467 1467 1467 1468
1453 1453 1453 1453 1453 1453 1453 1453 1453 1454 1454 1454 1454 1455 1456 1457 1457 1457 1457 1457 1458 1458 1459 1459 1460 1460 1461 1461 1462 1462 1463 1463 1463 1463 1463 1464 1464 1464 1464 1464 1465 1465 1465 1465 1465 1465 1465 1465 1465 1465 1465 1465 1465 1465 1465 1465 1465 1466 1466 1466 1466 1466 1467 1467 1467 1467 1467 1467 1468
1453 1453 1453 1454 1454 1454 1454 1454 1454 1454 1454 1454 1455 1456 1457 1457 1457 1458 1458 1458 1458 1459 1459 1460 1460 1461 1461 1462 1462 1462 1463 1463 1463 1463 1463 1464 1464 1464 1464 1464 1465 1465 1465 1464 1464 1464 1464 1465 1465 1465 1465 1465 1465 1465 1465 1465 1465 1466 1466 1466 1467 1467 1467 1467 1467 1467 1467 1467 1468
1454 1454 1454 1454 1454 1454 1454 1454 1455 1455 1455 1455 1456 1457 1457 1458 1458 1458 1459 1459 1459 1459 1459 1460 1460 1461 1461 1461 1462 1462 1462 1463 1463 1463 1464 1464 1464 1464 1464 1464 1464 1465 1464 1464 1464 1464 1464 1465 1465 1465 1465 1465 1465 1465 1465 1465 1466 1466 1466 1466 1467 1467 1467 1467 1467 1467 1467 1467 1467
1454 1454 1454 1454 1454 1454 1454 1454 1455 1455 1456 1456 1457 1457 1458 1458 1458 1458 1459 1459 1459 1459 1460 1460 1460 1461 1461 1461 1462 1462 1462 1463 1463 1464 1464 1464 1464 1464 1464 1464 1464 1465 1465 1465 1465 1465 1465 1465 1465 1465 1465 1465 1465 1465 1465 1465 1466 1466 1466 1466 1466 1466 1466 1466 1467 1467 1467 1467 1467
1454 1454 1454 1454 1454 1454 1455 1455 1455 1456 1457 1457 1457 1457 1458 1458 1458 1458 1458 1459 1459 1459 1460 1460 1460 1461 1461 1461 1461 1462 1462 1463 1463 1464 1464 1464 1465 1465 1465 1465 1465 1465 1465 1465 1465 1465 1465 1465 1465 1465 1465 1465 1465 1465 1465 1465 1466 1466 1466 1466 1466 1466 1466 1466 1466 1466 1466 1466 1466
1454 1454 1455 1455 1455 1455 1455 1456 1456 1457 1457 1457 1457 1457 1458 1458 1458 1458 1458 1459 1459 1460 1460 1460 1460 1461 1461 1462 1462 1462 1462 1463 1463 1464 1464 1465 1465 1465 1465 1466 1466 1466 1466 1466 1466 1466 1466 1466 1465 1465 1465 1465 1465 1465 1465 1466 1466 1466 1466 1466 1466 1466 1466 1466 1466 1466 1466 1466 1466
1455 1455 1455 1455 1456 1456 1456 1457 1457 1457 1457 1457 1457 1458 1458 1458 1458 1458 1459 1459 1459 1460 1460 1460 1461 1461 1462 1462 1462 1463 1463 1463 1464 1464 1465 1465 1465 1466 1466 1466 1466 1466 1466 1466 1466 1467 1467 1466 1465 1465 1465 1465 1465 1465 1465 1466 1466 1466 1466 1466 1466 1466 1466 1466 1466 1466 1466 1465 1465
Wind_Speed
23 22 20 20 20 19 18 17 15 15 15 15 15 14 14 15 17 18 19 20 21 23 23 24 24 23 22 22 23 24 24 23 22 21 19 18 17 16 16 17 18 19 19 18 17 17 17 18 19 18 16 14 14 14 16 17 19 20 20 21 21 20 18 17 17 16 16 15 15
23 22 21 20 20 19 18 18 17 16 15 14 14 14 15 17 19 19 19 19 21 22 23 23 23 23 23 23 24 25 25 24 23 22 21 19 18 16 15 16 17 17 17 16 16 16 17 18 17 15 13 12 12 12 13 15 17 18 18 18 18 18 17 16 16 16 16 16 17
22 21 20 21 20 20 19 18 17 16 16 16 16 16 18 19 19 18 18 18 19 21 22 23 23 23 23 24 24 25 25 25 24 23 22 21 19 17 16 15 15 16 16 15 15 15 15 16 14 13 12 11 11 12 12 13 14 15 16 16 16 15 15 15 15 16 17 18 18
21 20 19 19 18 18 18 17 16 16 18 20 20 20 20 19 18 17 16 17 18 20 21 23 23 23 23 23 24 25 25 25 25 24 23 22 20 18 17 16 15 15 15 15 14 14 14 14 14 13 13 12 12 12 13 13 13 14 15 16 15 15 15 16 16 17 18 19 18
20 19 19 18 17 17 17 17 17 18 20 22 22 21 20 18 17 16 16 17 18 19 21 22 22 22 22 22 22 23 24 24 24 24 23 22 20 19 18 17 16 16 16 16 15 14 14 14 14 14 14 14 14 14 14 14 14 14 15 16 17 17 17 18 18 18 18 17 15
21 20 20 18 18 19 19 18 19 21 22 23 23 21 19 18 17 16 17 17 18 19 20 21 21 20 20 20 21 21 22 22 23 22 22 21 19 19 18 17 17 17 17 17 16 16 16 17 17 17 16 16 16 16 16 16 15 15 16 18 18 19 19 18 18 16 15 14 13
22 22 21 20 21 22 22 21 22 23 24 23 22 20 18 17 17 17 17 17 18 19 20 20 19 19 18 18 19 20 20 20 21 21 20 19 18 18 18 18 18 18 18 18 18 18 18 19 19 19 18 18 18 18 18 18 17 17 18 20 20 20 19 18 16 15 14 13 13
25 24 24 24 24 23 23 23 23 23 23 22 20 19 17 17 17 17 17 17 18 19 19 19 18 18 17 17 18 18 19 19 19 19 19 18 18 18 18 18 18 18 18 19 19 19 20 21 21 20 20 19 20 19 19 19 18 19 20 22 23 22 20 18 17 16 15 14 13
26 26 26 25 24 24 24 24 24 23 22 20 19 18 17 17 16 16 16 17 17 18 19 19 18 18 17 17 17 17 18 18 18 17 18 18 18 18 19 19 18 18 18 18 18 19 21 22 22 21 21 21 21 21 20 20 20 22 23 24 24 22 20 19 18 17 15 14 12
27 27 26 26 25 25 25 25 24 22 20 19 18 18 17 16 16 16 15 16 16 17 18 18 18 18 18 17 17 16 16 17 17 17 17 18 19 19 19 19 18 17 17 17 17 18 19 21 22 22 22 22 22 22 22 22 22 23 23 23 21 20 19 19 18 16 14 12 11
27 27 27 27 27 27 26 25 23 21 20 19 18 18 17 16 15 15 15 16 16 17 17 18 18 18 19 18 17 16 15 15 15 16 17 18 18 18 18 18 17 16 15 15 16 16 17 19 21 22 23 23 22 22 22 22 22 22 21 20 19 18 17 18 17 14 12 11 10
25 26 27 27 27 26 25 23 22 20 19 19 18 18 16 15 15 15 16 16 16 17 17 18 18 19 19 18 17 16 15 15 15 16 16 17 17 17 17 16 15 14 14 14 15 15 16 18 20 21 22 22 21 21 21 21 21 20 19 18 17 17 17 16 15 13 12 11 11
24 25 25 26 25 25 23 22 21 20 19 19 18 17 16 16 16 17 17 17 17 18 18 18 18 18 18 18 17 16 15 15 16 16 16 16 16 16 15 14 13 13 13 14 15 15 16 17 18 19 20 20 20 19 19 19 18 18 17 17 17 17 16 16 14 13 13 13 13
22 23 23 24 24 23 22 22 21 20 20 19 18 17 17 18 18 18 18 18 18 19 19 18 17 17 17 17 17 17 16 16 16 16 15 15 15 15 14 13 13 13 14 15 15 16 17 18 18 19 19 19 19 19 19 18 18 17 17 16 16 17 16 15 13 12 12 12 13
22 22 22 23 23 23 22 22 21 21 20 20 19 19 19 20 20 19 19 19 19 19 18 16 16 16 16 17 18 17 17 16 16 15 15 14 15 14 14 13 14 14 15 16 16 17 17 18 19 20 20 19 19 20 20 20 19 18 18 17 18 17 16 14 12 10 10 10 11
22 22 22 23 23 23 23 22 22 21 21 21 20 20 20 21 20 19 19 19 19 18 17 16 16 16 17 18 18 18 17 17 16 16 15 15 15 14 14 14 15 15 16 16 16 16 17 18 18 18 19 19 20 20 20 20 19 19 18 18 19 18 16 13 11 9 8 9 10
21 22 22 23 23 23 23 22 22 22 21 21 21 21 20 20 19 18 18 18 18 17 17 17 17 17 17 18 18 18 18 18 17 17 16 16 16 15 15 15 15 15 15 15 15 15 15 15 15 16 16 17 17 17 17 17 16 16 17 17 17 16 15 12 10 8 8 9 10
19 20 21 22 22 22 22 22 21 21 21 20 20 20 19 18 18 17 17 17 17 17 17 17 18 18 18 18 18 18 18 18 18 18 18 17 17 16 16 16 16 15 15 14 14 14 14 14 14 14 14 14 13 13 13 12 13 13 13 13 13 13 12 10 10 9 10 11 12
16 17 18 19 20 20 20 20 20 20 19 19 18 18 18 18 17 17 17 17 17 17 17 18 19 19 19 18 18 18 18 19 19 19 19 18 18 17 17 16 16 15 14 14 13 13 13 13 13 13 13 12 11 11 10 10 10 10 10 10 10 9 9 9 10 11 12 13 14
15 16 16 17 18 18 18 19 18 18 18 18 17 18 18 18 18 17 17 16 16 16 17 19 20 20 19 19 19 19 19 20 20 20 20 19 18 18 17 16 15 15 14 13 13 13 12 12 12 11 11 10 10 9 9 9 8 8 8 8 8 8 8 9 10 11 13 13 14
14 15 16 16 17 17 17 17 17 17 17 18 18 18 18 18 17 16 16 16 16 17 18 19 20 20 20 20 20 21 21 21 20 20 20 19 18 17 16 15 14 14 13 13 12 11 11 10 10 9 8 8 7 7 7 6 6 6 6 6 7 8 9 10 11 12 13 13 13
14 15 16 17 17 17 17 17 17 18 18 18 18 18 17 16 15 15 16 16 17 19 19 20 21 21 21 22 22 23 22 21 20 19 18 17 16 15 14 13 13 13 12 11 10 10 9 9 8 7 6 6 5 5 5 5 5 5 5 6 7 8 10 11 11 12 12 12 13
13 15 16 17 17 17 17 17 17 17 17 16 16 15 14 14 14 15 16 18 19 20 21 21 21 22 22 22 22 23 22 21 20 18 17 15 15 14 13 12 12 11 11 10 9 8 8 7 7 6 5 5 5 5 5 5 6 6 6 7 8 9 10 11 11 11 12 12 12
11 13 14 15 15 16 16 15 15 15 14 13 13 12 12 13 14 15 17 19 20 21 22 22 21 21 21 21 20 20 19 19 18 17 15 14 14 13 12 12 11 10 10 9 8 8 7 6 5 5 5 5 5 5 6 6 6 7 8 8 9 10 10 10 11 11 11 12 12
9 10 11 12 13 13 13 13 12 12 12 12 12 13 14 15 16 18 19 21 21 22 22 22 20 20 19 18 18 17 16 15 15 14 13 13 12 12 11 11 10 9 9 8 7 6 6 5 5 4 4 5 5 5 6 6 7 7 8 8 9 9 9 10 10 11 11 11 11
8 8 9 10 10 10 10 10 11 11 12 13 14 16 18 19 20 21 22 23 23 22 22 20 19 18 17 16 15 14 13 12 12 11 10 10 9 9 9 9 8 8 7 6 5 5 4 4 4 4 4 4 5 5 6 6 6 7 7 7 8 8 8 8 9 9 9 9 8
7 8 8 9 10 10 10 11 12 13 15 16 18 19 20 21 22 22 23 23 23 21 20 19 18 17 16 15 14 13 12 11 10 9 9 8 8 8 7 7 7 7 6 5 4 4 3 3 3 3 3 3 4 4 5 5 5 6 6 6 6 7 7 7 7 6 6 6 6
11 11 12 12 13 14 14 15 15 16 18 19 20 20 21 21 22 22 22 22 21 20 19 19 18 17 15 14 13 11 11 10 10 9 9 8 8 8 7 7 7 6 5 5 4 3 2 2 2 2 2 3 3 4 4 4 5 5 5 5 5 5 5 5 5 4 4 3 3
16 16 17 17 18 18 18 18 18 19 19 20 20 20 20 20 20 20 20 20 19 19 18 18 17 16 15 14 12 11 10 9 9 8 8 8 7 7 7 7 7 6 5 4 3 2 2 1 1 1 2 3 3 4 4 4 4 4 3 3 3 3 3 3 3 3 2 2 2
18 19 19 20 20 20 20 20 19 20 20 20 20 20 20 20 19 19 19 18 18 17 16 16 15 15 14 13 12 11 9 8 7 7 6 6 6 6 6 6 6 5 4 3 2 2 1 1 1 2 3 3 4 4 4 3 3 3 3 2 2 2 2 2 2 2 1 1 0
17 18 18 19 19 20 20 20 19 19 19 19 19 19 20 19 19 18 17 16 16 15 14 13 13 13 12 11 10 10 9 8 7 6 5 5 5 5 4 4 4 4 4 4 4 4 4 4 4 4 4 4 4 3 3 3 2 2 2 2 2 2 2 2 1 1 1 1 1
15 15 15 16 17 18 18 18 18 18 17 16 16 16 17 17 17 16 15 14 14 13 12 11 11 11 11 10 10 10 9 9 8 7 6 5 5 5 5 5 5 5 5 5 5 5 5 5 5 5 4 4 3 3 2 2 2 2 2 2 1 1 1 1 1 1 1 1 1
13 13 13 14 14 15 15 16 16 17 17 16 15 15 14 15 15 14 14 13 12 12 11 11 10 10 10 11 11 11 11 11 9 8 6 5 5 5 5 5 5 5 5 5 5 5 5 5 4 4 3 3 2 2 1 1 1 1 1 1 1 1 1 1 2 2 2 2 2
13 13 13 13 12 12 12 13 13 14 14 15 14 14 14 14 14 13 13 12 12 11 11 10 10 10 10 10 11 12 12 11 10 7 6 4 4 3 3 4 4 4 4 5 5 5 4 3 3 2 2 1 1 1 1 1 1 1 2 2 2 2 2 2 2 2 2 3 3
13 13 13 12 12 11 11 11 11 11 11 12 11 11 11 12 14 15 14 14 14 14 13 12 11 11 11 11 11 11 12 11 10 8 6 4 3 3 3 3 3 4 4 4 4 4 3 3 2 2 2 2 2 3 3 4 4 4 4 4 4 4 4 3 3 3 3 3 3
12 12 12 12 11 11 10 10 10 10 10 10 10 10 12 13 15 15 16 15 15 15 15 14 14 13 13 12 12 11 11 11 10 8 5 4 3 3 2 3 3 4 4 4 4 4 4 3 3 4 4 4 5 5 6 6 6 6 6 6 5 5 4 4 4 3 3 2 2
11 11 11 11 10 10 10 10 10 10 10 10 11 12 13 14 15 16 16 15 15 15 15 14 14 13 13 13 12 12 11 9 8 7 5 4 4 4 3 3 4 4 5 5 5 5 5 5 5 6 6 7 7 7 7 7 7 7 7 6 5 5 4 3 3 2 2 1 0
11 11 10 10 9 9 9 10 10 10 10 11 12 13 14 14 15 15 16 15 14 14 14 13 13 13 13 12 12 11 10 8 7 6 7 7 7 7 7 7 7 7 6 7 7 8 7 7 7 8 8 8 7 7 7 7 7 6 6 5 4 4 3 3 2 2 1 1 2
10 10 10 9 9 9 9 9 10 10 11 11 12 12 13 13 14 14 14 14 13 13 13 13 13 12 12 12 11 11 10 8 8 8 9 11 10 10 10 10 9 8 7 8 9 9 9 8 8 8 8 7 6 6 6 6 6 5 4 4 3 3 2 2 3 3 3 3 3
10 9 9 9 9 9 9 9 10 10 10 10 10 11 11 11 11 12 12 12 12 12 12 12 12 12 11 11 10 10 10 10 9 10 11 13 13 12 12 11 9 7 6 6 8 9 9 8 6 6 7 7 6 6 5 5 5 5 3 3 2 2 2 3 4 4 4 5 5
9 9 9 9 9 9 9 9 9 9 9 9 10 10 10 10 10 11 11 12 12 12 12 12 12 12 11 11 10 10 11 11 11 11 12 12 12 11 10 8 7 5 3 3 5 8 8 7 5 4 5 6 5 5 5 5 4 4 3 2 1 2 2 3 4 4 5 5 6
Wind_Direction
213 213 211 208 206 205 204 206 207 207 209 213 215 216 216 216 218 220 222 222 224 228 232 236 240 243 242 237 231 228 228 230 232 234 236 239 241 241 239 236 232 230 230 232 235 238 240 241 241 239 237 233 229 227 226 225 224 222 220 220 218 216 214 212 214 218 223 228 234
211 210 209 206 204 203 204 207 209 209 209 211 214 217 221 225 229 231 233 234 236 237 239 240 242 243 241 237 231 228 227 228 229 231 234 236 238 238 237 234 231 229 228 228 230 232 233 232 230 226 222 220 218 218 220 222 221 220 217 216 215 215 216 216 218 222 226 230 233
209 208 206 205 204 204 205 208 209 209 208 208 211 217 225 232 236 240 243 243 242 241 240 239 240 240 238 235 231 227 225 226 227 229 232 234 235 235 233 230 227 225 223 221 223 225 224 220 216 213 212 213 214 216 219 221 222 222 222 221 220 219 220 221 222 224 226 227 228
207 206 206 205 204 205 207 210 211 211 213 215 219 225 232 238 243 248 250 249 245 241 238 237 237 237 235 232 229 226 225 225 226 228 230 231 232 231 230 227 225 223 222 220 220 221 219 215 212 212 214 217 218 220 222 223 223 223 224 224 222 220 219 219 220 222 223 224 224
205 205 205 205 205 207 209 211 211 213 217 220 225 231 237 243 248 252 254 252 247 241 237 235 234 233 231 229 226 224 224 224 225 226 227 228 229 229 228 227 226 226 226 226 226 224 222 219 218 219 221 222 223 224 226 227 225 225 224 223 220 218 216 215 216 218 220 223 226
202 200 199 198 199 201 204 208 213 218 221 224 227 231 237 244 249 253 255 254 248 242 237 234 231 229 227 225 223 222 222 222 223 224 224 224 225 226 227 227 228 228 230 232 233 231 229 228 226 226 226 227 226 226 227 228 227 226 226 225 221 218 216 216 217 219 223 227 232
199 197 195 194 197 201 207 213 219 223 226 227 229 233 237 243 248 252 254 252 247 241 236 231 227 225 223 222 221 220 219 219 219 219 219 220 222 223 225 227 227 228 230 233 235 235 234 231 231 231 231 230 229 228 228 228 227 227 228 229 226 223 221 220 222 224 227 231 235
198 198 199 200 202 206 212 219 224 227 229 231 233 235 238 243 248 252 253 250 243 237 233 229 224 222 222 221 219 217 215 214 213 214 215 217 219 222 225 226 226 226 227 231 235 237 236 233 233 233 233 233 231 230 229 229 228 229 230 230 229 226 223 222 224 226 228 231 234
199 200 202 205 208 212 218 222 226 228 231 233 234 236 240 244 249 252 250 245 238 234 231 227 224 222 223 223 220 216 212 210 210 211 213 216 219 221 223 225 225 225 226 229 232 235 237 235 234 234 235 235 234 232 231 230 229 229 229 228 225 222 220 220 222 225 227 229 231
200 201 204 207 211 215 219 223 226 229 231 233 234 237 241 246 250 250 246 242 237 233 230 228 226 225 227 228 225 219 213 211 210 212 215 217 219 221 222 223 223 224 224 226 229 232 236 237 237 237 236 235 233 231 230 229 228 227 225 223 219 215 215 217 220 223 224 226 227
202 203 205 208 211 215 219 222 225 228 230 232 234 238 243 247 248 247 244 241 237 235 233 232 230 229 230 232 231 225 218 214 214 215 217 218 219 219 220 221 222 223 225 226 227 229 233 237 239 238 236 233 229 227 226 225 224 221 219 216 213 211 212 216 219 218 218 221 225
206 207 209 211 213 215 218 221 224 227 229 231 235 239 243 246 246 245 242 239 237 237 238 237 235 233 233 234 233 228 223 220 219 219 218 217 216 216 216 217 219 222 224 226 227 229 231 234 235 234 232 228 225 222 221 221 219 216 213 210 209 209 211 214 215 214 214 219 225
209 212 214 215 216 217 219 221 224 227 229 231 234 237 240 242 243 243 241 237 236 238 240 241 239 236 235 235 233 228 223 222 221 220 217 213 211 211 211 212 215 218 221 223 224 225 227 229 229 227 225 223 222 220 219 218 216 212 209 207 207 208 210 212 212 214 217 223 229
210 214 216 219 220 221 221 223 225 227 229 230 232 233 235 237 240 241 240 238 238 240 243 245 244 241 237 236 233 227 221 218 217 215 212 209 208 208 208 208 210 214 217 219 220 221 223 224 224 223 222 221 220 220 219 218 215 211 208 207 208 209 210 212 212 216 221 228 233
211 213 217 220 222 223 224 225 226 228 229 230 231 232 233 235 239 241 240 239 241 244 248 250 250 245 239 236 232 225 217 212 210 208 207 208 208 209 208 207 208 211 214 217 218 220 221 222 223 224 224 223 222 222 222 220 218 214 210 210 212 214 213 213 214 219 225 232 237
213 215 218 221 223 224 225 226 227 228 229 231 232 233 234 237 239 240 241 242 245 249 252 253 251 245 238 233 229 223 215 208 205 204 205 209 211 210 208 207 207 210 213 215 217 220 222 223 224 225 225 225 224 223 221 219 216 214 214 216 219 220 218 216 217 222 231 238 243
217 218 220 222 223 224 225 226 228 229 230 232 233 234 236 238 240 241 243 245 250 253 254 252 246 239 232 228 225 221 214 207 203 203 205 209 210 209 206 204 204 206 208 210 213 216 218 220 222 223 223 222 221 219 217 215 214 216 219 222 223 223 221 219 220 226 236 243 247
221 222 223 224 224 225 226 227 229 231 232 233 234 236 237 239 241 244 246 250 252 254 252 248 241 232 225 222 222 220 215 207 203 202 203 204 203 201 198 197 198 199 200 202 204 207 210 212 215 216 216 214 213 213 213 214 216 219 223 225 226 225 224 224 227 232 240 246 249
223 224 225 225 226 227 228 229 230 232 233 234 236 237 239 242 244 248 251 253 252 249 246 241 234 226 220 218 219 219 214 205 200 197 195 194 192 190 189 190 191 191 192 194 196 198 201 203 206 207 205 204 204 207 211 214 216 218 220 223 226 228 230 233 236 240 245 249 252
224 225 226 226 227 228 229 230 231 232 233 235 237 240 243 246 250 253 255 252 246 241 236 230 224 218 214 212 213 212 206 198 192 188 186 185 183 183 183 184 185 187 187 188 190 191 193 195 198 198 198 197 199 202 206 211 213 216 220 224 229 234 238 241 244 247 250 253 257
228 227 227 228 228 229 229 230 231 232 234 236 240 244 248 252 256 257 253 245 236 230 224 218 212 207 204 203 202 199 194 188 184 181 179 178 177 177 178 180 182 184 185 186 186 186 187 189 191 192 193 194 197 200 205 209 213 217 222 228 233 239 244 247 250 253 257 261 266
234 232 230 230 230 230 230 231 232 234 237 241 245 249 253 256 257 253 245 234 225 218 211 205 199 194 192 191 190 187 183 180 177 175 174 173 172 172 174 176 178 180 181 181 180 180 180 181 183 184 186 189 195 202 208 213 220 223 228 233 238 244 248 253 256 261 265 270 274
240 236 234 233 232 232 233 234 236 239 243 246 249 251 251 250 246 239 230 221 213 206 198 191 185 182 181 181 181 179 176 173 172 170 169 167 166 166 168 171 172 173 173 174 173 172 173 174 176 180 185 193 201 210 217 224 230 235 240 244 248 253 257 261 265 269 273 276 278
247 241 238 236 236 236 237 239 241 242 244 245 243 239 233 227 222 217 212 207 200 193 185 178 173 170 170 172 171 170 167 164 163 162 161 160 160 160 162 165 166 167 168 169 170 171 172 175 180 188 197 206 215 223 230 237 243 248 252 255 259 262 265 268 271 273 275 277 277
247 242 238 237 236 236 236 236 235 233 230 226 220 213 206 201 197 194 192 189 184 179 173 167 162 160 160 160 160 158 155 153 151 151 151 153 157 159 161 162 164 166 166 168 169 173 177 184 193 203 213 224 233 240 246 251 255 259 261 263 264 267 269 270 271 272 273 274 274
231 227 224 222 222 220 218 215 211 206 202 198 194 190 186 182 180 178 176 174 171 167 162 157 152 149 148 147 145 143 142 142 142 142 143 146 151 157 161 164 166 167 167 168 172 177 184 193 205 218 231 241 249 254 258 260 261 263 265 266 266 267 268 268 270 270 271 272 273
192 189 188 188 188 185 182 181 180 179 179 178 176 175 173 171 170 168 167 165 161 156 151 145 140 137 136 134 132 130 131 134 137 139 142 146 152 158 164 166 167 166 166 168 172 179 187 199 215 232 242 250 256 258 261 263 264 265 265 266 266 267 268 269 272 273 275 276 279
150 151 153 154 154 153 154 157 159 161 163 164 164 163 163 162 161 160 158 155 151 145 139 134 132 132 130 128 125 126 129 134 139 144 149 155 161 165 167 165 162 159 159 162 165 171 181 195 215 229 244 252 257 262 265 268 270 272 272 272 274 275 277 277 280 282 285 288 294
131 133 135 137 137 138 140 143 145 147 149 150 150 149 149 148 148 147 145 143 140 135 131 129 130 130 128 127 128 131 135 140 145 151 157 164 167 167 164 160 154 151 150 151 153 156 165 186 219 249 263 274 281 284 287 289 293 295 296 294 293 291 289 287 289 289 290 296 315
125 126 127 127 127 128 130 132 134 135 136 136 135 134 134 133 133 132 131 131 130 129 128 127 127 128 130 131 134 137 140 143 146 151 156 160 159 158 155 152 147 141 134 126 115 98 65 17 342 329 320 317 316 318 320 322 321 320 317 311 304 297 292 288 288 284 284 284 305
124 123 122 121 121 120 119 119 120 121 122 122 121 121 120 120 119 118 118 119 120 121 122 123 124 126 128 131 136 139 140 141 140 141 140 140 136 133 130 125 111 97 83 68 51 35 19 5 354 346 341 336 336 337 338 336 330 323 317 308 299 291 282 275 267 260 251 236 201
121 120 118 116 114 112 110 108 106 105 105 106 107 109 110 110 109 108 108 109 110 113 116 120 123 124 125 127 130 131 131 128 124 120 118 113 105 99 90 79 67 55 43 32 24 14 5 355 349 345 342 340 341 342 339 335 323 312 301 293 283 269 255 243 231 225 218 213 200
113 112 111 109 107 106 104 101 98 95 94 94 96 100 105 108 108 107 107 108 110 113 118 122 125 126 127 127 126 126 123 118 115 114 113 111 102 93 84 72 57 40 25 14 7 360 353 348 345 345 345 343 343 342 340 328 309 295 272 246 225 213 203 197 196 195 195 192 189
107 107 106 106 105 105 104 101 99 97 97 97 99 101 105 112 118 120 120 122 125 127 127 126 126 127 128 129 129 126 122 118 119 124 131 133 124 113 99 80 55 31 14 5 360 357 357 357 357 1 4 10 19 48 92 116 126 132 134 136 143 151 157 161 166 167 172 175 176
109 108 108 108 108 109 110 111 112 112 112 111 113 117 121 126 129 131 133 135 139 140 138 136 135 133 132 132 132 129 127 129 134 143 151 150 142 129 109 80 51 28 14 8 7 12 21 32 45 60 75 89 101 109 114 116 117 119 121 122 125 128 133 137 140 144 152 159 166
110 111 110 110 111 112 116 121 127 130 131 130 134 140 143 143 143 142 143 143 145 144 142 141 141 140 137 136 135 135 138 144 151 155 152 137 123 110 91 68 46 27 17 16 24 35 50 63 75 85 92 97 101 103 107 108 110 111 112 113 115 115 117 119 122 125 129 136 152
110 109 109 110 111 113 118 124 132 140 145 149 152 154 154 152 150 149 148 148 148 147 146 147 146 145 143 142 141 144 149 155 157 151 132 107 87 73 63 54 39 28 24 29 39 50 62 72 81 88 91 92 93 96 98 99 101 102 102 102 101 101 100 99 100 101 100 94 52
110 109 108 109 111 116 121 128 138 148 156 160 160 160 158 156 153 151 151 152 153 153 154 155 154 153 153 153 152 153 155 158 155 138 115 94 78 67 62 59 49 39 35 38 44 51 61 71 82 89 91 91 92 94 96 96 94 91 89 87 85 80 73 64 54 41 23 354 327
114 112 112 114 118 124 132 140 148 156 161 164 162 160 159 158 155 154 154 156 158 160 161 162 161 161 162 164 163 160 159 157 149 133 116 104 97 92 89 86 78 65 53 48 48 50 55 62 76 88 94 97 98 100 101 100 95 88 79 73 65 52 35 17 1 347 337 327 318
119 120 122 125 130 137 145 152 156 160 163 164 162 160 159 159 158 158 159 161 163 166 167 166 165 165 168 170 168 163 158 154 146 135 127 123 122 123 122 120 114 103 84 65 55 52 52 52 65 84 96 100 103 104 106 106 102 93 80 62 43 20 359 347 339 333 327 322 318
129 132 134 138 142 148 154 158 161 162 163 163 162 161 161 161 162 162 162 163 166 168 169 168 167 167 169 170 168 163 157 152 147 141 136 135 137 141 144 146 146 141 120 79 60 54 51 47 53 78 95 100 104 107 111 115 111 105 93 66 22 348 336 330 327 325 324 322 320